sat.trackr.live / text

‹ back to catalog

UNKNOWN

NORAD 82820

UNKNOWN UNKNOWN UNKNOWN

§ Identity

Operator
Country
Launch date
Launch site
Launch vehicle
Mass (kg)
RCS (m²)

External: N2YO · Heavens-Above

§ Orbital elements

Epoch: 2026-05-23T18:55:41.262528Z

Period
100.27 min
Inclination
99.7969°
Eccentricity
0.0046528
Mean motion
14.36117229 rev/d
Perigee alt
738.1 km
Apogee alt
804.6 km
Semi-major
7,149.5 km
B*
6.0427e-4
RAAN
331.2991°
Arg perigee
272.7420°
Mean anomaly
86.8436°
Rev number
64,888

§ Raw data

UNKNOWN1 82820U          26143.78867202  .00001727  00000+0  60427-3 0  99942 82820  99.7969 331.2991 0046528 272.7420  86.8436 14.36117229648883

JSON: /api/v1/satellites/82820 · /tle

For live sub-satellite position, see the globe view (requires WebGL).

§ Visibility from observer

Set your observer location to see the next 7 days of passes ≥ 10°. The values pass through the URL so the page stays shareable.

No JS? Fill the form by hand. The geolocation button needs JavaScript.